AirNav   Phillips 66 Aviation Fuel
 
 396 users online  

1T7 Kestrel Airpark
San Antonio, Texas, USA

GOING TO SAN ANTONIO?


FAA INFORMATION EFFECTIVE 13 SEPTEMBER 2018

Location

FAA Identifier: 1T7
Lat/Long: 29-48-42.3000N / 098-25-33.8000W
29-48.705000N / 098-25.563333W
29.8117500 / -98.4260556
(estimated)
Elevation: 1261 ft. / 384 m (estimated)
Variation: 07E (1995)
From city: 23 miles N of SAN ANTONIO, TX
Time zone: UTC -5 (UTC -6 during Standard Time)
Zip code: 78070

Airport Operations

Airport use: Open to the public
Activation date: 06/1999
Control tower: no
ARTCC: HOUSTON CENTER
FSS: SAN ANGELO FLIGHT SERVICE STATION
NOTAMs facility: SJT (NOTAM-D service available)
Attendance: CONTINUOUS
Wind indicator: yes
Segmented circle: yes
Lights: SS-SR

Airport Communications

CTAF/UNICOM: 122.975
WX AWOS-3 at 5C1 (15 nm W): 118.725 (830-755-9099)
WX ASOS at SAT (17 nm S): PHONE 210-805-5583

Nearby radio navigation aids

VOR radial/distance  VOR name  Freq  Var
SATr002/10.2SAN ANTONIO VORTAC116.8008E
RNDr332/19.0RANDOLPH VORTAC112.3005E
STVr140/27.8STONEWALL VORTAC113.8008E
SSFr353/(33.2)STINSON VOR108.4009E

 
NDB name  Hdg/Dist  Freq  Var  ID
ALAMO027/14.436804EAN .- -.

Airport Services

Fuel available: 100LL
FUEL SELF SERVICE. FOR ASSISTANCE CALL AMGR AT 830-522-1885.
Parking: tiedowns
Airframe service: MAJOR
Powerplant service: MAJOR
Bulk oxygen: HIGH

Runway Information

Runway 12/30

Dimensions: 3000 x 40 ft. / 914 x 12 m
Surface: asphalt, in good condition
Runway edge lights: non-standard
NSTD LIRL; RY 12 LGTS NOT AT THLD.
Runway edge markings: MARKINGS ARE FADED
RY NRS 35 FT HIGH.
Operational restrictions: RY 30 RISES RAPIDLY AT NORTH END.
RUNWAY 12  RUNWAY 30
Latitude: 29-48.856647N29-48.553942N
Longitude: 098-25.788255W098-25.339040W
Elevation: 1261.0 ft.1218.0 ft.
Gradient: 1.4% UP
Traffic pattern: leftright
Runway heading: 121 magnetic, 128 true301 magnetic, 308 true
Markings: NSTD, in poor conditionNSTD, in poor condition
Obstructions: 21 ft. trees, 295 ft. from runway, 30 ft. left of centerline, 4:1 slope to clear
+15 FT ROAD 0 FT FM THLD 70 FT L OF CNTRLN, +35 FT TREE 110 FT FM THLD 70 FT L OF CNTRLN, +20 FT TREE 25 FT FM THLD 90 FT L OF CNTRLN.
15 ft. road, 200 ft. from runway
+15 FT ROAD 15-200 FT FM THLD 0-120 FT L OF CNTRLN.

Airport Ownership and Management from official FAA records

Ownership: Privately-owned
Owner: KESTREL AIRPARK RUNWAY ASSOCIATION
150 FLIGHTLINE DRIVE
SPRING BRANCH, TX 78070
Phone (830) 522-1885
Manager: DOUG HOOKER
210 KESTREL DRIVE
SPRING BRANCH, TX 78070
Phone (830) 522-1885

Airport Operational Statistics

Aircraft based on the field: 83
Single engine airplanes: 75
Multi engine airplanes: 5
Helicopters: 2
Ultralights: 1
    
Aircraft operations: avg 133/week *
95% local general aviation
5% transient general aviation
* for 12-month period ending 27 September 2016

Additional Remarks

DEER ON & INVOF RY.
TGL AND LOW APCHS PROHIBITED FOR TRANSIENT & COMMERICAL ACFTS. TKOFS RSTRD BTN 2200-0600.
NO HEL TRNG OPS ALLOWED.
FOR CD CTC SAT APCH AT 210-805-5516.

Instrument Procedures

There are no published instrument procedures at 1T7.

Some nearby airports with instrument procedures:

5C1 - Boerne Stage Field Airport (15 nm W)
KSAT - San Antonio International Airport (17 nm S)
KRND - Randolph Air Force Base (19 nm SE)
KBAZ - New Braunfels Regional Airport (21 nm E)
KSKF - Kelly Field Airport (27 nm S)
 
Loc | Ops | Rwys | IFR | FBO | Links
Com | Nav | Svcs | Stats | Notes


 
Area around 1T7 (Kestrel Airpark)
 
Road maps at: MapQuest Bing Google
 
Aerial photo
WARNING: Photo may not be current or correct
Aerial photo of 1T7 (Kestrel Airpark)
Do you have a better or more recent aerial photo of Kestrel Airpark that you would like to share? If so, please send us your photo.

 
Sectional chart

 
Airport distance calculator
Flying to Kestrel Airpark? Find the distance to fly.

From to 1T7

Sunrise and sunset
Times for 20-Sep-2018
 Local
(UTC-5)
 Zulu
(UTC)
Morning civil twilight06:5811:58
Sunrise07:2212:22
Sunset19:3200:32
Evening civil twilight19:5600:56

Current date and time
Zulu (UTC)  20-Sep-2018 06:05:21
Local (UTC-5)  20-Sep-2018 01:05:21
 
METAR
K5C1 
15nm W 
200555Z AUTO 00000KT 10SM SCT055 BKN065 23/22 A3000 RMK AO1
KSAT 
17nm S 
200551Z 17008KT 10SM SCT055 BKN240 26/23 A2997 RMK AO2 SLP129 T02560228 10300 20256 403170244 51012
KRND 
20nm SE 
192256Z AUTO 14009KT 10SM FEW050 32/22 A2988 RMK AO2 SLP109 T03150219 $
KBAZ 
20nm E 
200551Z AUTO 19006KT 10SM CLR 26/23 A2995 RMK AO2 SLP133 T02560228 10311 20256 403330217 50012
KSKF 
28nm S 
192256Z AUTO 16007KT 10SM FEW049 31/22 A2986 RMK AO2 LTG DSNT S SLP104 T03130220 $
KSSF 
29nm S 
200553Z AUTO 16004KT 10SM CLR 27/23 A2994 RMK AO2 SLP126 T02670228 10306 20267 403390250 51011
KHYI 
29nm E 
200556Z AUTO 15003KT 10SM CLR 24/22 A2998 RMK AO2 SLP141 T02440222 10306 20244 403390206 51012 $
TAF
KSAT 
17nm S 
200540Z 2006/2112 16009KT P6SM VCSH BKN060 BKN200 FM200900 16006KT P6SM BKN015 FM201600 17008KT P6SM BKN025 FM201900 15010KT P6SM BKN040 PROB30 2021/2101 4SM TSRA BKN040CB FM210900 16009KT P6SM VCSH SCT012
KRND 
20nm SE 
191941Z 1917/2023 VRB06KT 9999 FEW180 QNH2987INS BECMG 2008/2009 VRB06KT 9999 BKN015 QNH2991INS TEMPO 2010/2014 BKN009 BECMG 2013/2014 22006KT 9999 FEW009 SCT030 QNH2990INS BECMG 2019/2020 21010G15KT 9999 FEW040 SCT060 QNH2991INS TX33/1921Z TN23/2009Z LAST NO AMDS AFT 2000 NEXT 2009
NOTAMs
Click for the latest NOTAMs
NOTAMs are issued by the DoD/FAA and will open in a separate window not controlled by AirNav.

 

 
 

FBO, Fuel Providers, and Aircraft Ground Support

  
 Business Name 
 
 Contact 
 
 Services / Description 
 
Fuel Prices
 
Comments
  
 Aloha Aviation Services
830-522-1885
[web site]
[email]
Aviation fuel, Oxygen service, Aircraft parking (ramp or tiedown), Hangars, Hangar leasing / sales, Passenger terminal and lounge, Flight training, ...

More info about Aloha Aviation Services
Phillips 66
100LL
SS $4.49 
GUARANTEED
 
   4 read write
SS=Self service
Update Fuel Prices
 

Would you like to see your business listed on this page?

 If your business provides an interesting product or service to pilots, flight crews, aircraft, or users of the Kestrel Airpark, you should consider listing it here.  To start the listing process, click on the button below
 
Add a business
 

Other Pages about Kestrel Airpark

www.kestrelairport.com
www.kestrel-airpark.com
 
Update a link
 
Copyright © AirNav, LLC. All rights reserved. Privacy Policy  Contact